Rifle, CO

10:48 PM MDT on May 23, 2018 (GMT -0600)
Garfield County Regional

Weather History for KRIL - June, 2014

Change the Weather History Date:

Thursday, June 19, 2014

  Actual Average Record
Temperature  
Mean Temperature 61 °F 67 °F  
Max Temperature 79 °F 86 °F 99 °F (1936)
Min Temperature 42 °F 48 °F 34 °F (1975)
Degree Days  
Heating Degree Days 4 1  
Month to date heating degree days 39 53  
Since 1 June heating degree days 39 53  
Since 1 July heating degree days 6795 6619  
Cooling Degree Days 0 4  
Month to date cooling degree days 25 43  
Year to date cooling degree days 39 50  
Since 1 June cooling degree days 25 43  
Growing Degree Days 10 (Base 50)    
Moisture  
Dew Point 23 °F    
Average Humidity 33    
Maximum Humidity 58    
Minimum Humidity 8    
Precipitation  
Precipitation 0.00 in 0.03 in 0.45 in (2000)
Month to date precipitation 0.11 0.76  
Year to date precipitation 4.60 6.18  
Sea Level Pressure  
Sea Level Pressure 30.04 in    
Wind  
Wind Speed 9 mph (West)    
Max Wind Speed 23 mph    
Max Gust Speed 31 mph    
Visibility 10 miles    
Events      
T = Trace of Precipitation, MM = Missing Value Source: NWS Daily Summary

Daily Weather History Graph

Daily Weather History Graph

Search for Another Location

Airport or City:

Astronomy

Jun. 19, 2014 Rise Set
Actual Time 5:43 AM MDT 8:41 PM MDT
Civil Twilight 5:10 AM MDT 9:13 PM MDT
Nautical Twilight 4:29 AM MDT 9:54 PM MDT
Astronomical Twilight 3:41 AM MDT 10:42 PM MDT
Moon 12:48 AM MDT (6/19) 1:15 PM MDT (6/19)
Length of Visible Light 16h 02m
Length of Day
14h 57m
Waning Gibbous, 50% of the Moon is Illuminated
Jun 19
Waning Gibbous
Jun 19
Last Quarter
Jun 27
New
Jul 5
First Quarter
Jul 12
Full

Hourly Weather History & Observations

Time (MDT) Temp. Windchill Dew Point Humidity Pressure Visibility Wind Dir Wind Speed Gust Speed Precip Events Conditions
1:00 AM 57.0 °F - 30.0 °F 36% 30.14 in 10.0 mi NW 8.1 mph - N/A   Scattered Clouds
1:53 AM 54.0 °F - 30.0 °F 40% 29.99 in 10.0 mi WNW 6.9 mph - N/A   Clear
2:53 AM 52.0 °F - 28.9 °F 41% 30.00 in 10.0 mi North 4.6 mph - N/A   Clear
4:53 AM 46.9 °F - 30.0 °F 52% 30.03 in 10.0 mi Calm Calm - N/A   Clear
5:53 AM 42.1 °F - 28.0 °F 58% 30.08 in 10.0 mi Calm Calm - N/A   Clear
6:53 AM 45.0 °F 42.6 °F 30.0 °F 56% 30.10 in 10.0 mi East 4.6 mph - N/A   Clear
7:53 AM 51.1 °F - 32.0 °F 48% 30.09 in 10.0 mi NNE 4.6 mph - N/A   Unknown
9:53 AM 60.1 °F - 30.0 °F 32% 30.09 in 10.0 mi Variable 3.5 mph - N/A   Clear
10:53 AM 64.0 °F - 23.0 °F 21% 30.06 in 10.0 mi Variable 5.8 mph - N/A   Clear
11:53 AM 68.0 °F - 26.1 °F 21% 30.05 in 10.0 mi WNW 11.5 mph - N/A   Clear
12:53 PM 71.1 °F - 24.1 °F 17% 30.03 in 10.0 mi WNW 8.1 mph - N/A   Clear
1:53 PM 75.0 °F - 18.0 °F 12% 30.01 in 10.0 mi WNW 17.3 mph 24.2 mph N/A   Clear
2:53 PM 75.9 °F - 19.0 °F 12% 30.01 in 10.0 mi West 12.7 mph 23.0 mph N/A   Clear
3:53 PM 78.1 °F - 15.1 °F 9% 29.99 in 10.0 mi West 19.6 mph 27.6 mph N/A   Clear
4:53 PM 79.0 °F - 16.0 °F 9% 29.99 in 10.0 mi West 18.4 mph 24.2 mph N/A   Clear
5:53 PM 78.1 °F - 12.0 °F 8% 30.00 in 10.0 mi West 17.3 mph - N/A   Clear
6:53 PM 75.0 °F - 10.0 °F 8% 30.01 in 10.0 mi West 12.7 mph - N/A   Clear
7:53 PM 73.9 °F - 14.0 °F 10% 30.01 in 10.0 mi West 6.9 mph - N/A   Clear
8:53 PM 69.1 °F - 12.9 °F 11% 30.02 in 10.0 mi SSW 8.1 mph - N/A   Clear
9:53 PM 61.0 °F - 23.0 °F 23% 30.05 in 10.0 mi SSE 10.4 mph - N/A   Clear
10:53 PM 57.9 °F - 30.0 °F 35% 30.07 in 10.0 mi South 3.5 mph - N/A   Clear
11:53 PM 55.0 °F - 28.0 °F 35% 30.06 in 10.0 mi ESE 8.1 mph - N/A   Clear